When you browse on this site, cookies collect data to enhance your experience and personalize the content and advertising you see.
Visit our Privacy Policy to learn more. By continuing to use the site, you agree to this use of cookies and data.
  • In Hungary
  • List of Countries
  • For 7 days
  • Water Temperature
  • Weather Map
  • News
  • Weather Widgets
  • user-avatar
    Login

    Hourly Weather La Grande Motte

    Today, 18 November, Monday

    Time Temperature Precipitation Wind Pressure Humidity
    00:00 +4°C° 0 mm 4 mps 756 mmHg 73%
    01:00 +4°C° 0 mm 4 mps 756 mmHg 72%
    02:00 +4°C° 0 mm 4 mps 756 mmHg 71%
    03:00 +3°C° 0 mm 5 mps 756 mmHg 70%
    04:00 +3°C° 0 mm 5 mps 756 mmHg 70%
    05:00 +3°C° 0 mm 5 mps 757 mmHg 70%
    06:00 +3°C° 0 mm 5 mps 757 mmHg 70%
    07:00 +5°C° 0 mm 5 mps 757 mmHg 67%
    08:00 +5°C° 0 mm 6 mps 757 mmHg 64%
    09:00 +7°C° 0 mm 6 mps 757 mmHg 62%
    10:00 +8°C° 0 mm 6 mps 758 mmHg 59%
    11:00 +9°C° 0 mm 5 mps 758 mmHg 56%
    12:00 +10°C° 0 mm 5 mps 758 mmHg 54%
    13:00 +10°C° 0 mm 5 mps 758 mmHg 55%
    14:00 +10°C° 0 mm 5 mps 757 mmHg 57%
    15:00 +10°C° 0 mm 5 mps 757 mmHg 58%
    16:00 +8°C° 0 mm 6 mps 758 mmHg 61%
    17:00 +7°C° 0 mm 6 mps 758 mmHg 64%
    18:00 +5°C° 0 mm 6 mps 759 mmHg 68%
    19:00 +5°C° 0 mm 6 mps 759 mmHg 69%
    20:00 +5°C° 0 mm 6 mps 759 mmHg 69%
    21:00 +5°C° 0 mm 5 mps 759 mmHg 70%
    22:00 +4°C° 0 mm 6 mps 759 mmHg 71%
    23:00 +4°C° 0 mm 6 mps 759 mmHg 71%

    Tomorrow, 19 November, Tuesday

    Time Temperature Precipitation Wind Pressure Humidity
    00:00 +3°C° 0 mm 6 mps 759 mmHg 71%
    01:00 +3°C° 0 mm 6 mps 759 mmHg 71%
    02:00 +3°C° 0 mm 6 mps 759 mmHg 70%
    03:00 +3°C° 0 mm 6 mps 759 mmHg 70%
    04:00 +3°C° 0 mm 6 mps 759 mmHg 70%
    05:00 +3°C° 0 mm 6 mps 759 mmHg 71%
    06:00 +3°C° 0 mm 6 mps 759 mmHg 71%
    07:00 +4°C° 0 mm 6 mps 759 mmHg 69%
    08:00 +5°C° 0 mm 6 mps 759 mmHg 66%
    09:00 +7°C° 0 mm 6 mps 760 mmHg 64%
    10:00 +8°C° 0 mm 6 mps 759 mmHg 60%
    11:00 +9°C° 0 mm 5 mps 759 mmHg 56%
    12:00 +12°C° 0 mm 5 mps 759 mmHg 52%
    13:00 +12°C° 0 mm 5 mps 759 mmHg 54%
    14:00 +10°C° 0 mm 5 mps 759 mmHg 56%
    15:00 +11°C° 0 mm 4 mps 759 mmHg 58%
    16:00 +9°C° 0 mm 5 mps 759 mmHg 62%
    17:00 +8°C° 0 mm 5 mps 760 mmHg 66%
    18:00 +7°C° 0 mm 5 mps 760 mmHg 70%
    19:00 +6°C° 0 mm 5 mps 760 mmHg 71%
    20:00 +6°C° 0 mm 5 mps 761 mmHg 72%
    21:00 +6°C° 0 mm 4 mps 761 mmHg 72%
    22:00 +6°C° 0 mm 4 mps 761 mmHg 71%
    23:00 +6°C° 0 mm 4 mps 761 mmHg 71%

    Day after tomorrow, 20 November, Wednesday

    Time Temperature Precipitation Wind Pressure Humidity
    00:00 +7°C° 0 mm 3 mps 761 mmHg 70%
    01:00 +5°C° 0 mm 3 mps 760 mmHg 71%
    02:00 +5°C° 0 mm 3 mps 760 mmHg 72%
    03:00 +5°C° 0 mm 3 mps 760 mmHg 72%
    04:00 +5°C° 0 mm 3 mps 760 mmHg 73%
    05:00 +5°C° 0 mm 3 mps 760 mmHg 74%
    06:00 +5°C° 0 mm 3 mps 760 mmHg 75%
    07:00 +5°C° 0 mm 3 mps 760 mmHg 74%
    08:00 +7°C° 0 mm 3 mps 760 mmHg 74%
    09:00 +6°C° 0 mm 4 mps 760 mmHg 74%
    10:00 +8°C° 0 mm 4 mps 759 mmHg 72%
    11:00 +9°C° 0 mm 5 mps 759 mmHg 70%
    12:00 +10°C° 0 mm 5 mps 759 mmHg 68%
    13:00 +10°C° 0.1 mm 5 mps 758 mmHg 69%
    14:00 +12°C° 0.1 mm 5 mps 758 mmHg 69%
    15:00 +12°C° 0.1 mm 5 mps 758 mmHg 70%
    16:00 +10°C° 0 mm 5 mps 758 mmHg 72%
    17:00 +10°C° 0 mm 5 mps 758 mmHg 75%
    18:00 +9°C° 0 mm 5 mps 758 mmHg 78%
    19:00 +9°C° 0.2 mm 5 mps 758 mmHg 81%
    20:00 +9°C° 0.2 mm 5 mps 758 mmHg 84%
    21:00 +10°C° 0.2 mm 4 mps 758 mmHg 86%
    22:00 +10°C° 0.2 mm 4 mps 758 mmHg 86%
    23:00 +9°C° 0.2 mm 5 mps 758 mmHg 86%

    21 November, Thursday

    Time Temperature Precipitation Wind Pressure Humidity
    00:00 +9°C° 0.2 mm 5 mps 758 mmHg 86%
    01:00 +9°C° 0.3 mm 5 mps 757 mmHg 85%
    02:00 +9°C° 0.3 mm 6 mps 757 mmHg 85%
    03:00 +9°C° 0.3 mm 6 mps 757 mmHg 85%
    04:00 +10°C° 0.3 mm 6 mps 757 mmHg 84%
    05:00 +10°C° 0.3 mm 6 mps 757 mmHg 84%
    06:00 +10°C° 0.3 mm 7 mps 757 mmHg 83%
    07:00 +10°C° 0.3 mm 6 mps 757 mmHg 82%
    08:00 +11°C° 0.3 mm 6 mps 757 mmHg 80%
    09:00 +12°C° 0.3 mm 5 mps 757 mmHg 78%
    10:00 +13°C° 0.3 mm 5 mps 757 mmHg 75%
    11:00 +14°C° 0.3 mm 5 mps 757 mmHg 71%
    12:00 +14°C° 0.3 mm 5 mps 757 mmHg 68%
    13:00 +14°C° 0.2 mm 5 mps 756 mmHg 70%
    14:00 +13°C° 0.2 mm 5 mps 756 mmHg 72%
    15:00 +13°C° 0.2 mm 4 mps 756 mmHg 74%
    16:00 +13°C° 0.2 mm 4 mps 756 mmHg 77%
    17:00 +12°C° 0.2 mm 5 mps 757 mmHg 79%
    18:00 +12°C° 0.2 mm 5 mps 757 mmHg 81%
    19:00 +12°C° 0.2 mm 5 mps 757 mmHg 82%
    20:00 +12°C° 0.2 mm 5 mps 757 mmHg 83%
    21:00 +10°C° 0.2 mm 6 mps 758 mmHg 84%
    22:00 +11°C° 0.1 mm 6 mps 757 mmHg 84%
    23:00 +11°C° 0.1 mm 6 mps 757 mmHg 84%

    22 November, Friday

    Time Temperature Precipitation Wind Pressure Humidity
    00:00 +11°C° 0.1 mm 7 mps 757 mmHg 84%
    01:00 +11°C° 0.2 mm 7 mps 757 mmHg 84%
    02:00 +11°C° 0.2 mm 8 mps 756 mmHg 84%
    03:00 +12°C° 0.2 mm 8 mps 756 mmHg 84%
    04:00 +12°C° 0.6 mm 8 mps 756 mmHg 84%
    05:00 +12°C° 0.6 mm 8 mps 755 mmHg 84%
    06:00 +12°C° 0.6 mm 8 mps 755 mmHg 85%
    07:00 +12°C° 1.1 mm 9 mps 755 mmHg 84%
    08:00 +12°C° 1.1 mm 9 mps 755 mmHg 84%
    09:00 +12°C° 1.1 mm 9 mps 755 mmHg 84%
    10:00 +12°C° 2 mm 9 mps 755 mmHg 85%
    11:00 +12°C° 2 mm 9 mps 754 mmHg 87%
    12:00 +12°C° 2 mm 9 mps 753 mmHg 88%
    13:00 +12°C° 1.1 mm 9 mps 753 mmHg 88%
    14:00 +12°C° 1.1 mm 9 mps 753 mmHg 89%
    15:00 +12°C° 1.1 mm 9 mps 752 mmHg 89%
    16:00 +12°C° 1.3 mm 9 mps 753 mmHg 89%
    17:00 +12°C° 1.3 mm 9 mps 753 mmHg 89%
    18:00 +13°C° 1.3 mm 8 mps 753 mmHg 89%
    19:00 +12°C° 1.3 mm 7 mps 753 mmHg 89%
    20:00 +13°C° 1.3 mm 6 mps 753 mmHg 90%
    21:00 +13°C° 1.3 mm 5 mps 753 mmHg 90%
    22:00 +12°C° 1.9 mm 5 mps 753 mmHg 91%
    23:00 +12°C° 1.9 mm 4 mps 752 mmHg 91%

    23 November, Saturday

    Time Temperature Precipitation Wind Pressure Humidity
    00:00 +12°C° 1.9 mm 4 mps 752 mmHg 91%
    01:00 +11°C° 0.9 mm 4 mps 752 mmHg 88%
    02:00 +10°C° 0.9 mm 5 mps 752 mmHg 86%
    03:00 +10°C° 0.9 mm 5 mps 752 mmHg 83%
    04:00 +9°C° 0.6 mm 6 mps 753 mmHg 83%
    05:00 +9°C° 0.6 mm 6 mps 753 mmHg 84%
    06:00 +9°C° 0.6 mm 6 mps 753 mmHg 84%
    07:00 +9°C° 0.9 mm 7 mps 754 mmHg 84%
    08:00 +9°C° 0.9 mm 8 mps 754 mmHg 83%
    09:00 +9°C° 0.9 mm 8 mps 754 mmHg 83%
    10:00 +8°C° 2 mm 9 mps 754 mmHg 81%
    11:00 +8°C° 2 mm 9 mps 754 mmHg 80%
    12:00 +8°C° 2 mm 9 mps 754 mmHg 79%
    13:00 +8°C° 2.6 mm 9 mps 755 mmHg 81%
    14:00 +8°C° 2.6 mm 9 mps 755 mmHg 83%
    15:00 +8°C° 2.6 mm 9 mps 756 mmHg 85%
    16:00 +9°C° 0.8 mm 8 mps 757 mmHg 83%
    17:00 +9°C° 0.8 mm 7 mps 758 mmHg 81%
    18:00 +9°C° 0.8 mm 7 mps 758 mmHg 79%
    19:00 +9°C° 0.1 mm 6 mps 759 mmHg 78%
    20:00 +9°C° 0.1 mm 6 mps 760 mmHg 77%
    21:00 +9°C° 0.1 mm 5 mps 761 mmHg 76%
    22:00 +9°C° 0 mm 5 mps 762 mmHg 76%
    23:00 +10°C° 0 mm 4 mps 762 mmHg 76%
    Show more